User: anonymous   Login
Location: Unspecified
(0.0000°N, 0.0000°E)
Time: 13:33:46
(UTC+00:00)
Language:

Alouette 1 - Orbit

View from above orbital plane
View from above orbital plane
View from above satellite
View from above satellite

Ground track
Ground track

The orbit data is extracted from the following two-line orbital elements,

1   424U 62049A   21295.06537221  .00000049  00000-0  46336-4 0  9995
2   424  80.4660 137.1128 0022548 302.1491  57.7470 13.69181491948767
Epoch (UTC): 22 October 2021 01:34:08
Eccentricity: 0.0022548
inclination: 80.4660°
perigee height: 986 km
apogee height: 1019 km
right ascension of ascending node: 137.1128°
argument of perigee: 302.1491°
revolutions per day: 13.69181491
mean anomaly at epoch: 57.7470°
orbit number at epoch: 94876

The dashed part of the orbit path shows where the satellite is in the earth's shadow,  

DLR